Vertical_Velocity
2 -1 7 -5 -7 -3 -3 -0 -1 -5 0 1 0 -4 -0 -2 0 -1 -5 3 5 8 8 -4 3 9 9 2 3 -1 0 1 6 1 5 2 -1 1 2 1 1 -1 -2
-1 10 16 4 8 -2 2 -2 5 -1 -2 -2 0 -3 -1 -1 -0 -0 -5 5 5 0 1 -3 4 -2 0 4 2 2 -1 3 8 6 4 1 -1 0 1 2 -1 -3 -3
5 39 11 9 2 -1 -5 -0 0 2 0 -0 -3 -2 3 -3 2 0 -3 10 5 3 3 -0 9 5 5 2 4 4 6 8 7 4 2 2 3 1 3 1 -1 -6 -0
-0 0 11 38 3 -1 -1 -0 -3 -1 0 1 -0 -2 2 -3 -1 -5 -2 -1 11 7 3 2 7 5 7 7 1 2 3 3 1 2 2 2 3 -0 1 1 -1 -0 1
8 2 27 22 19 4 -5 2 3 -0 -4 0 -0 -1 0 -1 -2 -1 -3 -3 8 6 6 1 4 5 5 2 2 1 -1 0 1 -0 2 2 2 -0 -0 -1 -3 -2 -0
5 18 4 54 -0 3 -3 -6 -1 -0 2 1 -1 -0 -0 1 -2 -3 -0 -2 -1 9 1 6 8 6 1 3 4 5 4 6 4 2 1 -1 -0 3 1 2 -1 -1 -3
-7 46 13 12 44 -3 -2 2 -0 -0 -0 -0 3 1 1 -1 -0 -2 -3 -3 -3 -2 2 19 13 6 6 6 4 9 5 4 2 2 1 -1 -1 -1 2 2 1 0 -1
-2 4 -6 15 57 -1 7 9 2 -2 -1 -2 0 1 0 2 -0 -1 -2 -0 -2 -1 -1 -2 -0 -2 -0 1 -2 -1 -0 0 1 0 2 1 -0 -2 -3 -1 -0 -1 -1
0 -3 -2 52 10 12 9 2 -2 5 -0 1 1 -1 -1 -0 1 -0 -0 -2 -2 -2 -2 -2 -1 0 1 -2 -4 -1 -1 -2 0 -1 0 2 2 1 1 2 2 -0 0
2 1 -1 -3 8 3 -1 5 -5 -2 3 0 3 -0 -0 1 0 1 1 -1 -0 0 -0 -1 -1 0 1 -0 0 -0 0 0 0 1 -0 -2 -0 2 1 1 1 1 1
-1 -1 -6 -5 -1 11 -0 7 16 -0 -3 1 0 0 -2 -1 -0 0 1 -0 -0 -2 -2 -0 0 1 0 -0 -1 1 1 2 1 2 -0 1 1 -0 0 3 2 1 1
-2 2 1 2 2 3 -0 -1 -2 7 -2 3 3 4 1 0 -0 2 -0 -3 -0 -1 0 0 2 0 1 0 -0 1 1 -0 0 0 2 0 -0 -1 -1 1 4 3 1
-1 -0 4 -1 1 3 1 -6 -2 3 -5 6 16 7 7 14 4 0 -1 -1 -1 -1 -1 -1 -1 -2 1 1 1 4 -1 2 -0 -0 -0 -2 2 3 1 1 4 2 1
-3 -1 -1 -1 -2 -3 -3 2 1 -1 0 -8 1 -2 3 2 -1 3 -5 1 8 8 11 9 7 2 7 5 1 2 2 5 3 2 3 2 0 10 8 2 3 2 3
-0 -3 -3 -1 -2 -1 -3 -1 0 1 0 1 2 -1 -1 -2 5 3 7 9 6 14 5 2 5 5 4 5 5 10 15 17 18 16 9 6 3 1 2 2 2 0 -1
-1 0 -1 -1 -0 1 -0 0 -1 0 -0 1 1 1 -1 1 2 4 2 -1 2 3 -0 1 3 3 5 6 6 6 8 4 3 3 4 0 -1 0 -0 -0 -1 1 -2
-2 2 0 -0 1 3 2 0 -2 -1 -1 -1 -2 0 1 -1 -1 1 3 4 5 3 2 5 4 5 4 5 4 2 0 2 2 6 4 1 2 -5 -2 -1 -1 0 2
1 1 1 3 3 3 3 1 3 5 4 5 8 8 6 3 2 3 4 3 3 5 3 5 2 6 4 3 2 1 3 1 -1 -1 -3 -4 2 -1 -0 1 2 -0 -2
-3 -2 -0 1 1 3 1 2 1 2 3 3 3 3 1 4 1 1 0 1 1 0 -2 -1 -1 -3 -3 -3 -5 -2 -0 -0 0 2 0 2 3 -1 -0 1 3 1 -1
-2 -2 -3 -4 -3 -3 -2 1 0 -1 -1 -0 -0 1 1 0 2 1 1 -1 1 0 1 -0 -1 -0 1 1 2 1 1 0 -0 -0 -0 1 -1 -2 -0 -1 -1 -1 -1
1 1 0 -1 -1 0 -1 -1 -3 -4 -3 -2 -2 -0 -1 -1 -1 -1 1 0 1 2 1 0 -1 -1 -0 -2 -2 1 -1 -0 1 1 -2 -2 -2 -1 -2 -1 -0 -2 -3
1 1 0 -1 -1 -1 -1 -1 -1 1 -1 -0 -2 -1 0 2 1 -0 1 -0 -0 -1 0 1 1 1 0 1 2 -0 -4 -1 -1 -2 -0 -2 -2 -1 -1 -2 -0 -2 -2
-4 -2 -1 -0 -0 -0 -0 -1 -1 -1 -0 1 -0 -1 -2 -1 -1 -1 -1 -1 0 1 -1 -2 -1 0 -0 -1 -2 -3 -2 -1 -2 0 1 -2 -2 -4 -4 -1 -2 -1 -2
-1 -2 -1 -0 1 1 -0 -0 2 1 1 1 -0 -1 -2 -2 -1 -0 1 -1 -2 -2 -1 1 0 -1 -2 -2 0 1 -0 -1 -2 -2 -1 -1 -3 -3 -2 -3 -1 -2 -2
-1 -2 -2 0 1 1 -0 1 1 1 1 1 2 1 1 1 0 -1 0 1 -1 -1 1 1 -2 -3 -2 -3 -2 -2 -0 0 -1 -2 -2 -2 -1 -1 -3 -2 -1 -1 -0
-1 -0 0 0 -0 1 2 1 0 0 -0 0 0 -1 -3 -1 0 -0 -1 0 4 1 -3 -2 1 1 1 2 1 1 1 0 -1 -2 -2 -2 -2 -1 -2 -2 -1 -2 -5
Height
5613 5618 5621 5626 5633 5639 5645 5649 5652 5655 5659 5661 5661 5663 5663 5662 5661 5660 5656 5655 5657 5662 5665 5669 5675 5678 5682 5686 5689 5692 5695 5698 5701 5701 5704 5706 5709 5712 5714 5715 5717 5717 5716
5606 5611 5615 5620 5626 5631 5638 5642 5646 5649 5652 5655 5656 5657 5656 5656 5655 5654 5649 5650 5651 5656 5660 5665 5669 5673 5677 5681 5684 5686 5689 5693 5694 5697 5700 5702 5704 5706 5707 5709 5709 5709 5707
5600 5606 5610 5614 5620 5626 5632 5636 5641 5644 5646 5648 5649 5650 5651 5651 5650 5648 5645 5645 5647 5652 5655 5659 5663 5668 5672 5675 5678 5681 5684 5687 5689 5691 5694 5696 5697 5698 5700 5701 5701 5699 5700
5589 5597 5602 5604 5613 5618 5625 5631 5635 5639 5639 5640 5643 5644 5644 5644 5644 5644 5644 5641 5643 5645 5650 5653 5658 5662 5666 5669 5672 5675 5678 5680 5682 5684 5686 5687 5689 5690 5691 5692 5692 5692 5692
5586 5590 5586 5594 5603 5610 5616 5622 5627 5631 5633 5633 5636 5637 5638 5639 5640 5640 5640 5640 5641 5643 5645 5648 5652 5657 5660 5663 5666 5669 5671 5673 5674 5676 5678 5679 5680 5681 5682 5683 5683 5683 5683
5582 5583 5586 5583 5596 5604 5610 5614 5620 5623 5627 5627 5630 5631 5633 5634 5635 5636 5637 5638 5638 5640 5642 5644 5647 5650 5654 5657 5660 5662 5664 5665 5666 5668 5670 5671 5672 5673 5673 5674 5674 5674 5674
5581 5577 5584 5589 5590 5598 5604 5608 5612 5617 5620 5622 5624 5626 5627 5629 5630 5631 5633 5634 5636 5637 5639 5641 5644 5646 5649 5651 5653 5655 5656 5657 5659 5660 5662 5662 5663 5664 5665 5664 5664 5664 5664
5575 5582 5583 5586 5588 5589 5597 5603 5606 5610 5612 5615 5618 5620 5622 5623 5624 5626 5627 5629 5631 5633 5634 5636 5638 5640 5642 5644 5646 5647 5648 5649 5651 5652 5652 5653 5654 5654 5654 5654 5653 5652 5652
5568 5572 5577 5579 5582 5584 5592 5595 5599 5601 5604 5607 5609 5612 5614 5616 5618 5618 5620 5622 5623 5626 5627 5629 5631 5632 5634 5636 5637 5638 5639 5639 5640 5641 5641 5642 5642 5643 5643 5642 5641 5640 5639
5560 5564 5568 5572 5576 5578 5584 5587 5591 5593 5596 5598 5601 5602 5605 5607 5609 5610 5612 5613 5615 5616 5617 5619 5621 5623 5624 5625 5626 5627 5628 5629 5630 5630 5630 5630 5630 5630 5630 5629 5628 5628 5626
5554 5557 5561 5564 5567 5569 5573 5574 5578 5583 5586 5589 5591 5593 5595 5596 5598 5600 5602 5604 5606 5607 5608 5609 5611 5612 5612 5613 5614 5615 5615 5616 5617 5618 5618 5618 5618 5617 5616 5615 5613 5612 5611
5547 5549 5550 5554 5558 5560 5563 5567 5570 5572 5572 5576 5579 5581 5582 5584 5586 5589 5590 5592 5593 5595 5596 5597 5598 5599 5600 5601 5601 5601 5602 5602 5602 5603 5603 5602 5602 5601 5601 5599 5597 5597 5595
5542 5541 5542 5544 5546 5549 5552 5555 5558 5559 5561 5564 5564 5566 5569 5570 5572 5574 5576 5577 5579 5581 5583 5583 5584 5585 5587 5587 5588 5588 5587 5588 5587 5587 5586 5586 5586 5585 5584 5582 5580 5579 5576
5535 5534 5535 5535 5535 5537 5540 5541 5543 5545 5545 5549 5551 5551 5554 5557 5558 5559 5561 5562 5564 5566 5566 5567 5569 5571 5572 5571 5570 5570 5571 5570 5569 5569 5569 5569 5567 5567 5565 5564 5562 5559 5557
5529 5528 5528 5527 5527 5527 5528 5528 5529 5529 5532 5534 5537 5538 5541 5542 5543 5544 5544 5545 5548 5549 5551 5552 5553 5552 5552 5552 5552 5552 5553 5555 5554 5553 5552 5551 5550 5548 5547 5546 5544 5542 5540
5522 5520 5520 5519 5519 5518 5519 5519 5519 5519 5520 5520 5521 5522 5523 5526 5526 5528 5529 5531 5533 5533 5534 5536 5536 5536 5537 5536 5536 5536 5535 5534 5533 5533 5532 5532 5531 5530 5531 5530 5529 5526 5523
5513 5514 5513 5513 5513 5512 5511 5511 5511 5510 5510 5510 5510 5511 5510 5512 5512 5512 5514 5515 5515 5517 5517 5518 5518 5519 5519 5519 5519 5519 5518 5518 5518 5519 5518 5516 5514 5515 5514 5512 5510 5507 5505
5505 5505 5505 5504 5504 5503 5503 5502 5502 5502 5502 5502 5501 5501 5502 5502 5501 5502 5503 5503 5505 5504 5505 5504 5505 5504 5505 5505 5505 5506 5506 5506 5505 5504 5503 5503 5501 5499 5496 5493 5490 5486 5482
5497 5496 5495 5494 5493 5492 5492 5492 5491 5491 5490 5490 5489 5489 5489 5489 5489 5490 5491 5490 5491 5491 5491 5490 5491 5491 5491 5491 5491 5491 5491 5491 5490 5488 5486 5485 5483 5479 5475 5472 5469 5465 5461
5487 5486 5485 5483 5482 5481 5480 5480 5479 5478 5477 5477 5477 5477 5476 5476 5476 5476 5475 5476 5476 5477 5477 5476 5476 5476 5477 5476 5476 5475 5474 5473 5472 5470 5468 5466 5463 5459 5455 5452 5448 5444 5439
5475 5473 5472 5470 5469 5468 5467 5466 5465 5465 5464 5463 5463 5463 5462 5462 5462 5462 5462 5462 5461 5461 5461 5460 5459 5459 5458 5458 5457 5456 5456 5455 5453 5451 5448 5445 5441 5438 5434 5430 5425 5420 5415
5461 5458 5456 5454 5452 5451 5450 5449 5449 5448 5447 5447 5446 5446 5446 5446 5446 5446 5445 5445 5445 5444 5444 5443 5442 5441 5441 5440 5439 5438 5436 5435 5431 5428 5425 5422 5419 5415 5411 5406 5402 5397 5391
5443 5441 5438 5436 5434 5432 5430 5429 5428 5428 5427 5427 5426 5426 5426 5427 5427 5427 5427 5426 5426 5425 5424 5423 5422 5421 5420 5419 5417 5415 5413 5411 5409 5406 5402 5398 5395 5391 5387 5383 5378 5374 5367
5423 5419 5416 5413 5412 5411 5409 5408 5407 5406 5406 5406 5405 5405 5404 5404 5404 5404 5404 5403 5403 5403 5402 5401 5399 5398 5397 5396 5395 5394 5392 5389 5385 5382 5379 5375 5372 5368 5364 5361 5356 5350 5343
5399 5396 5393 5391 5389 5387 5386 5385 5385 5384 5383 5383 5382 5382 5382 5383 5383 5382 5382 5381 5380 5379 5379 5379 5377 5377 5375 5374 5372 5370 5368 5365 5362 5359 5356 5353 5349 5345 5341 5337 5334 5328 5322
5375 5372 5370 5368 5367 5365 5364 5363 5362 5361 5361 5361 5361 5360 5359 5360 5360 5360 5360 5360 5360 5358 5357 5356 5355 5354 5353 5351 5349 5348 5346 5343 5340 5336 5333 5330 5327 5323 5319 5316 5312 5307 5303